Temp
26 27 27 28 28 28 28 28 28 28 28 28 28 28 28 27 26 27 26 27 28 28 29 29 29 29 29 29 29 28 28 28 28 28 28 28 28 28 28 28 29 28 28 28 28 29 29 29 29 29 29 28 28 28 28 27 27 27 26 25 25 24 23 23 22 22 22 21 22 23 22 21 21 20
26 27 27 27 28 28 28 28 28 28 28 28 28 28 28 27 27 26 26 26 27 27 28 28 28 28 28 28 28 28 28 28 28 28 28 28 28 28 28 29 29 29 28 28 28 29 29 29 29 29 29 28 28 28 28 27 27 27 26 26 25 25 24 23 23 22 22 22 22 22 23 22 21 20
27 27 27 27 27 27 28 28 28 28 28 28 28 28 28 27 27 27 26 26 26 27 27 27 28 28 28 28 28 28 28 28 28 28 28 28 28 28 28 29 30 29 29 29 29 29 29 29 29 29 29 28 28 28 28 27 27 27 26 26 25 25 24 24 23 22 22 22 21 22 23 23 22 21
27 27 27 27 27 27 27 27 27 28 28 28 28 28 28 28 27 27 26 25 25 26 27 27 27 28 28 28 28 28 28 28 28 28 28 28 28 29 29 29 30 30 30 30 29 29 29 29 29 29 28 28 28 28 28 27 27 27 26 26 26 25 25 24 23 23 22 22 22 21 22 23 23 22
27 27 27 26 26 26 27 27 27 28 28 28 28 28 28 28 27 27 26 25 25 26 27 27 27 27 28 28 28 28 28 28 28 28 28 28 29 29 29 29 30 30 30 30 29 29 29 29 29 29 28 28 28 28 28 27 27 27 26 26 26 25 25 25 24 23 23 22 22 22 21 22 23 23
26 27 27 26 26 26 27 27 27 28 28 28 28 27 28 28 27 27 27 26 25 26 27 27 27 27 28 28 28 28 28 28 28 28 28 28 29 29 29 29 29 30 30 30 30 30 29 29 29 29 29 29 28 28 28 28 27 27 27 26 26 26 25 25 25 24 23 23 22 22 21 22 23 23
26 26 27 26 27 27 27 27 27 28 28 28 28 27 27 27 27 27 27 26 26 26 26 26 27 27 28 28 28 28 28 28 28 28 28 28 29 29 29 29 29 30 30 30 30 30 29 29 29 29 29 29 29 29 28 28 28 27 27 27 26 26 26 26 25 24 24 23 23 22 22 21 22 23
26 27 27 27 27 27 28 28 27 27 28 28 28 28 27 27 27 27 27 27 26 26 26 26 27 27 27 27 28 28 29 29 29 29 29 28 28 28 28 29 29 29 29 30 30 29 29 29 29 29 29 29 29 29 28 28 28 27 27 27 27 26 26 26 26 25 24 24 23 23 22 22 21 22
27 27 27 27 27 27 27 27 27 27 28 28 28 27 27 27 27 27 27 27 27 26 26 27 27 27 27 28 28 29 29 29 29 29 29 29 28 28 28 29 29 29 29 30 29 29 29 29 29 29 29 29 29 29 28 28 28 28 27 27 27 26 26 26 26 26 25 24 24 23 23 22 22 22
27 27 27 27 27 27 27 27 28 28 28 27 27 27 28 27 27 27 27 27 27 27 27 27 27 28 28 28 29 29 29 29 29 29 29 29 29 29 29 29 29 29 29 29 29 29 29 29 29 29 29 29 28 28 28 28 28 28 28 27 27 26 26 26 26 26 25 25 24 24 23 23 22 22
27 27 27 27 27 27 27 27 28 28 28 28 28 28 28 28 27 27 27 27 28 28 27 28 28 28 28 28 28 29 29 29 29 29 29 29 29 29 29 29 29 28 28 28 28 29 29 29 29 28 28 28 28 28 28 28 29 28 28 27 27 27 26 26 26 26 25 25 25 24 24 23 23 22
27 27 27 27 27 27 27 27 28 28 28 28 28 28 28 28 28 27 27 27 27 27 27 27 27 28 28 28 28 28 29 29 29 29 29 29 29 28 29 29 28 28 28 28 28 28 28 28 28 28 28 28 28 28 28 29 29 29 28 28 27 27 27 26 26 26 26 25 25 24 24 24 23 23
27 27 27 27 28 28 28 28 28 28 28 28 28 28 27 27 27 27 27 27 27 27 27 27 27 27 27 28 28 29 29 29 29 29 29 28 28 28 28 28 28 27 27 27 27 28 28 28 28 28 27 28 28 28 28 29 29 29 28 28 28 27 27 27 26 26 26 26 25 25 24 24 24 23
27 27 27 28 28 28 28 28 28 28 28 28 28 27 27 27 27 26 26 26 26 26 27 27 27 27 27 28 28 28 29 29 28 28 27 27 27 27 27 27 27 27 27 27 27 27 27 27 27 27 27 27 28 28 28 29 29 29 29 28 28 28 27 27 26 26 26 26 26 25 25 24 24 24
27 27 28 28 28 28 29 29 28 28 28 28 28 27 27 27 27 26 26 26 26 26 26 27 27 27 27 28 28 28 28 28 27 27 27 27 26 26 26 26 26 26 26 26 26 26 27 27 27 27 27 27 28 28 28 29 29 29 29 28 28 27 27 27 27 26 26 26 26 25 25 25 24 24
27 27 28 28 28 29 29 28 28 28 28 27 27 27 27 27 27 27 26 26 26 26 26 26 26 27 27 27 27 27 27 27 27 27 26 26 26 26 26 25 26 26 26 26 26 26 26 26 26 27 27 27 28 28 28 28 28 29 29 28 28 28 27 27 27 27 27 26 26 26 25 25 25 24
28 28 28 28 28 28 28 28 28 28 28 27 27 27 27 27 27 27 27 26 26 26 26 26 26 26 26 26 26 27 27 27 27 26 26 26 26 25 25 25 26 26 26 26 25 26 26 26 26 26 27 28 28 28 28 28 28 28 28 28 28 28 27 27 27 27 27 26 26 26 26 25 25 24
28 28 28 28 28 28 28 28 28 28 28 28 27 27 27 27 26 26 26 27 27 27 27 26 26 27 27 26 26 27 26 26 26 26 26 25 25 25 25 25 25 25 25 26 25 25 26 26 26 26 27 28 28 28 28 28 28 28 28 28 28 28 27 27 27 27 26 26 26 26 26 26 25 24
28 28 27 27 27 27 26 26 27 27 27 27 27 27 27 26 26 26 26 27 27 27 27 27 27 27 26 26 26 26 26 26 26 26 25 25 25 25 25 25 25 25 26 26 26 26 26 26 26 26 27 27 27 27 27 27 27 27 27 27 27 27 27 27 27 27 26 26 26 26 26 26 25 25
26 26 26 26 26 26 25 25 26 26 26 27 27 27 26 26 26 26 26 27 27 27 26 26 26 26 26 26 26 26 26 26 26 25 25 25 25 24 24 24 25 25 25 26 26 26 26 26 26 26 26 26 26 26 26 27 27 27 27 27 27 27 27 27 27 27 26 26 26 26 26 25 25 25
26 25 25 25 25 25 25 25 25 25 25 25 25 25 25 25 25 26 26 26 27 26 26 26 26 26 26 26 26 26 26 26 25 25 25 24 24 24 23 24 24 25 25 25 25 25 25 25 25 25 25 25 25 26 26 26 26 26 26 26 26 26 26 26 26 26 26 26 26 26 25 25 25 25
25 25 25 25 25 25 25 25 25 25 25 25 24 24 24 25 25 25 25 25 25 25 25 25 25 25 26 26 26 26 26 25 25 24 24 24 23 23 23 23 23 23 24 24 24 24 24 24 24 24 24 24 25 25 25 25 25 26 26 26 26 26 26 26 26 26 26 26 26 26 25 25 25 24
24 24 24 24 24 24 24 24 24 23 23 24 23 23 23 24 24 24 24 24 24 24 24 24 24 25 25 25 25 25 25 24 24 24 24 23 23 22 22 22 22 22 23 24 24 23 23 23 24 24 24 23 24 24 24 24 25 25 25 25 26 26 26 26 26 26 26 26 26 26 25 25 25 25
23 23 23 24 24 23 22 22 22 22 22 23 23 23 23 23 23 23 23 23 23 23 23 23 24 24 24 24 24 24 24 24 24 23 23 23 23 22 22 21 21 21 23 23 23 23 23 23 23 23 23 22 23 24 24 24 24 24 24 25 25 25 26 26 26 26 26 26 26 26 26 25 25 25
21 21 21 22 23 22 21 21 21 21 22 22 22 22 22 22 22 22 22 22 22 22 23 23 24 24 23 23 23 23 23 23 23 23 23 23 22 22 22 22 21 21 22 23 23 22 22 22 22 22 22 22 23 23 23 23 24 24 24 24 25 25 25 26 26 26 26 26 26 26 26 25 25 25
21 20 21 21 21 21 21 21 21 21 21 22 22 22 22 22 22 22 22 22 22 22 23 23 23 23 23 23 23 23 23 23 23 22 22 22 22 22 22 22 21 21 22 23 23 23 22 22 22 22 22 22 22 22 22 23 23 24 24 24 24 25 25 26 26 26 26 26 26 26 26 26 25 25
20 20 20 20 20 20 21 21 21 21 22 22 22 22 22 22 22 22 22 22 22 22 22 23 23 23 23 23 22 22 22 22 22 22 22 22 22 22 22 22 22 22 22 23 23 23 23 23 23 22 22 21 21 21 22 22 23 23 23 23 24 24 25 25 25 25 26 26 26 26 26 26 25 25
20 20 21 20 20 21 21 21 21 21 22 22 22 22 23 22 22 22 22 22 22 22 22 22 23 23 23 22 22 21 22 22 22 22 22 22 22 22 22 22 22 22 22 23 23 23 23 23 22 22 22 21 21 21 21 22 22 22 22 23 23 24 24 24 24 25 25 25 25 25 25 26 25 25
21 21 21 21 21 21 22 22 22 22 22 22 22 22 22 22 22 22 21 21 22 22 22 22 22 22 22 22 21 21 22 22 22 22 22 22 22 22 22 22 22 22 23 23 23 24 23 23 22 22 22 22 21 21 21 21 21 22 22 22 23 23 24 24 24 24 24 25 25 25 25 25 25 25
21 21 22 21 21 21 22 22 22 22 22 22 22 22 22 22 22 22 21 22 22 21 21 22 22 22 21 21 21 21 21 22 22 22 21 21 22 21 21 21 22 22 23 23 24 24 23 23 23 23 22 22 22 22 22 21 21 22 22 22 22 23 24 24 24 24 24 24 24 24 24 24 24 24
20 21 21 21 21 21 22 22 22 22 22 22 22 22 22 22 22 22 22 22 21 21 21 21 21 21 21 21 21 21 21 21 22 21 21 21 21 21 21 21 21 22 23 23 23 23 23 23 23 23 22 22 22 22 22 22 21 22 22 22 22 23 23 24 24 24 24 24 24 24 24 24 24 24
21 21 21 21 21 21 22 22 23 23 23 22 22 23 23 23 23 23 22 21 20 20 21 20 21 21 21 21 21 21 21 21 21 21 21 21 21 21 21 21 21 22 22 23 23 23 23 23 23 23 23 22 22 22 22 22 22 22 23 23 23 23 23 23 23 24 24 24 24 24 24 24 24 24
21 21 21 21 21 22 22 22 23 23 23 23 23 23 22 23 23 22 21 20 20 20 20 20 20 20 20 21 21 21 21 21 21 21 21 21 21 21 21 21 21 22 22 22 22 22 22 22 22 22 22 22 22 23 23 22 22 23 23 23 23 23 23 23 23 23 24 24 24 24 24 24 24 24
20 20 20 21 22 23 23 23 23 23 23 23 23 22 22 22 22 21 20 19 19 19 19 20 20 20 20 20 21 21 21 21 21 21 21 21 21 21 21 21 22 22 22 22 22 22 21 21 22 22 22 22 22 23 23 23 23 23 23 23 23 23 23 23 23 23 23 23 23 23 24 24 24 24
19 20 20 21 23 23 23 23 24 23 23 22 22 21 21 21 21 20 19 19 19 19 19 19 19 19 20 20 20 20 20 20 20 20 20 20 20 21 21 21 21 21 20 21 21 20 20 20 20 21 21 21 22 23 24 24 23 22 21 22 22 22 22 23 23 23 22 22 22 23 23 23 24 24
18 19 20 21 22 23 23 23 23 23 22 22 21 21 21 21 20 19 19 19 19 18 18 18 18 19 19 19 19 19 19 19 19 19 19 19 20 20 20 20 20 19 19 20 19 19 19 19 20 20 20 21 21 22 22 23 22 21 21 21 21 21 22 22 22 21 21 22 22 22 22 23 23 24
18 19 20 21 22 22 22 22 22 22 21 21 21 21 21 20 19 19 18 18 18 18 17 17 18 18 18 18 18 18 18 19 19 19 19 19 19 19 19 19 19 19 19 18 18 18 18 19 19 20 20 20 19 20 20 21 21 20 20 20 20 20 21 21 20 20 21 21 22 22 23 23 23 23
18 19 19 20 20 20 21 21 21 20 20 20 20 20 20 19 18 18 18 18 17 17 17 17 17 18 18 18 18 18 18 18 18 18 18 18 18 18 18 18 18 18 17 17 18 18 18 19 20 20 19 18 18 18 18 18 18 18 18 19 19 20 20 20 20 20 20 21 21 22 22 22 22 23
19 19 19 20 20 20 20 20 19 19 19 19 19 18 18 17 17 18 18 17 17 17 17 17 17 17 18 18 18 18 18 18 18 18 18 18 17 17 17 17 17 17 17 17 17 18 19 19 19 19 18 18 18 18 18 18 18 18 18 18 19 20 20 20 20 20 20 21 21 21 21 21 21 22
19 19 19 19 19 19 19 19 19 19 18 18 18 17 17 16 17 17 17 17 17 17 17 17 17 17 17 17 17 17 17 17 17 17 17 16 16 16 16 16 16 16 17 17 17 18 18 18 18 18 17 17 18 18 18 18 18 18 18 19 19 20 20 20 20 20 20 20 20 20 20 20 20 21
18 17 18 18 18 18 19 18 18 18 17 17 17 16 16 16 16 16 16 16 16 16 16 16 17 17 17 17 17 16 16 16 16 16 15 15 15 15 15 15 16 16 16 17 17 17 17 17 17 17 17 17 17 17 18 18 18 18 18 18 19 19 19 19 19 19 19 19 19 19 19 19 20 20
15 15 15 16 16 16 17 17 17 17 17 16 16 16 15 15 15 15 15 16 16 16 16 16 15 15 15 15 15 15 15 15 15 15 14 14 15 15 15 15 15 15 16 16 16 17 17 17 17 17 17 17 17 17 17 17 17 18 18 18 18 18 18 18 18 18 19 19 19 19 19 19 19 20
14 14 13 13 13 14 14 14 15 15 15 15 15 15 15 14 14 14 15 15 15 15 15 14 14 14 15 15 14 14 14 14 14 14 14 14 14 14 14 15 15 15 15 15 15 16 16 16 17 17 17 17 17 17 17 17 17 17 17 17 17 17 17 17 17 18 18 18 19 19 19 19 19 19
13 13 12 12 12 12 12 13 13 13 13 13 13 13 13 13 13 13 14 14 14 14 14 14 14 14 14 14 13 13 13 13 13 13 13 14 14 14 14 14 14 14 14 14 14 15 15 16 16 16 16 16 16 16 16 16 16 16 16 16 16 16 16 16 16 16 16 17 17 18 18 19 19 20
11 12 12 11 11 11 11 11 11 11 11 12 12 12 12 12 12 12 13 13 13 12 12 12 13 13 13 12 12 13 13 13 13 13 13 13 13 13 13 13 13 13 13 13 14 14 15 15 15 16 16 16 16 16 16 16 15 15 15 15 15 15 15 15 15 15 16 16 17 18 18 19 19 20
Height
861 861 861 861 861 861 861 862 862 862 862 861 861 861 860 862 864 865 865 862 859 859 858 857 857 857 856 856 855 854 854 853 852 851 850 849 848 848 847 845 845 844 843 841 840 839 838 836 835 834 833 831 830 829 828 826 825 824 823 823 822 821 820 820 820 819 818 818 817 816 815 814 814 814
860 860 861 861 861 861 861 861 861 861 862 861 860 860 860 861 862 863 865 863 859 858 858 857 857 856 855 855 854 854 853 853 852 850 849 849 848 847 846 844 843 842 841 840 839 838 837 835 834 833 832 831 830 828 827 826 824 823 822 822 821 820 819 819 819 819 818 817 817 816 815 814 814 814
860 860 860 860 860 860 861 860 861 861 860 861 860 860 860 860 861 860 862 862 860 858 858 857 856 855 855 854 853 853 853 852 851 850 849 848 847 846 845 842 841 841 840 839 838 837 836 834 833 832 831 830 829 827 826 825 824 823 822 821 820 820 819 818 818 818 818 817 817 816 815 814 814 814
859 859 860 860 860 860 860 860 860 860 860 860 860 860 860 860 860 859 859 860 859 858 858 857 856 855 854 853 852 852 851 851 850 849 848 847 846 845 843 842 841 840 839 838 837 836 834 833 833 831 830 829 828 827 825 824 823 822 821 820 819 819 818 818 817 817 817 817 816 816 816 815 814 814
858 859 859 859 859 859 859 859 859 859 859 859 859 859 859 859 859 859 859 859 858 857 857 856 855 854 854 853 852 852 851 850 849 848 848 847 845 844 843 842 840 839 838 836 836 835 833 833 832 831 830 828 827 826 825 823 822 821 820 819 818 818 817 817 816 816 816 816 816 815 815 815 814 813
858 858 858 858 858 858 858 858 858 858 858 858 858 858 858 859 859 858 858 858 857 856 856 855 855 854 853 852 852 851 850 849 848 848 847 846 845 844 842 841 840 838 837 836 835 833 832 832 831 830 829 827 826 825 824 823 821 820 819 818 817 817 816 816 815 815 815 815 815 815 814 814 814 813
857 857 857 857 857 857 857 857 857 858 857 857 857 857 857 858 858 858 858 857 857 856 855 854 854 853 853 852 851 850 849 849 848 847 846 845 844 843 842 840 839 837 836 835 834 832 832 831 830 828 828 827 825 824 823 822 820 819 818 817 817 816 815 815 814 814 814 814 814 814 814 814 814 813
856 856 856 856 856 856 856 856 857 857 857 857 857 857 857 857 857 857 856 856 856 855 854 854 854 853 852 851 850 849 848 847 847 845 844 844 843 841 840 839 838 837 835 834 833 832 831 830 828 827 827 825 824 823 822 821 819 818 818 817 816 815 814 814 813 813 812 812 813 813 813 813 813 813
855 856 856 856 856 856 856 856 856 856 856 856 856 856 856 856 856 856 856 855 855 854 854 853 853 852 851 849 848 848 847 846 845 844 843 842 840 839 838 838 837 836 835 834 832 831 830 828 827 826 825 824 823 822 820 819 818 817 817 816 815 814 814 813 812 811 811 811 811 811 812 812 812 812
855 855 855 855 855 855 855 855 855 855 855 856 856 856 856 855 855 855 855 855 854 854 853 852 851 850 849 849 848 847 846 845 843 842 841 840 839 838 837 837 836 835 834 833 832 830 828 827 826 825 824 823 822 821 819 818 817 816 815 815 814 813 812 812 811 810 810 809 809 810 810 810 810 811
854 854 854 854 854 854 854 854 854 854 854 855 855 855 854 854 854 854 854 854 854 853 853 852 851 850 849 848 847 846 845 843 842 841 840 838 838 837 836 835 835 834 833 832 830 829 827 826 825 824 823 822 821 819 817 816 815 814 813 813 812 812 811 810 810 809 808 808 808 808 808 809 809 809
853 852 852 852 852 852 852 852 853 853 853 853 853 853 853 853 853 853 853 853 853 853 852 851 850 850 849 847 846 845 843 842 841 840 839 838 837 836 835 834 833 832 831 830 829 828 826 825 824 822 821 820 819 817 815 813 812 812 811 811 811 810 809 809 808 807 807 806 806 806 806 807 807 807
851 851 851 851 851 851 851 850 851 851 852 852 852 852 852 852 852 852 852 852 852 852 851 851 850 849 848 847 845 844 843 842 841 840 839 837 836 835 833 832 832 831 830 829 827 826 825 823 821 820 819 817 817 815 813 811 810 810 810 809 809 809 808 807 806 806 805 805 805 805 805 805 805 806
850 850 850 850 850 850 850 849 849 850 850 850 850 851 851 851 851 851 851 851 851 851 850 849 849 848 847 846 845 844 842 842 840 839 838 837 835 835 833 830 830 830 829 827 825 824 823 822 819 818 817 815 815 814 811 810 809 809 808 808 807 807 807 806 805 804 804 804 803 803 803 803 804 804
848 848 848 848 848 848 847 847 847 848 848 848 849 849 849 849 850 850 850 850 850 849 849 848 848 847 846 845 845 843 842 841 840 838 838 837 835 834 833 830 828 828 828 826 823 820 820 820 818 816 815 814 813 812 811 810 809 808 807 807 806 806 806 805 804 803 802 802 802 802 802 801 802 802
847 847 847 847 846 846 846 847 847 846 847 847 847 847 847 847 848 848 848 848 848 848 848 847 847 846 845 844 843 843 842 840 839 838 837 836 835 833 832 830 827 826 827 825 822 818 817 817 816 814 813 812 811 811 810 809 808 807 806 806 805 805 804 804 803 802 801 801 800 800 800 800 800 800
845 845 846 846 845 845 846 846 846 845 845 845 845 845 845 845 846 846 846 846 846 846 846 845 844 843 843 842 841 841 840 839 838 837 836 835 834 833 831 829 827 825 825 824 821 816 815 816 815 813 812 811 809 809 808 807 807 806 805 805 804 803 803 802 802 801 800 800 799 799 798 798 798 798
844 844 845 845 844 845 845 845 844 844 844 844 844 844 844 844 844 844 844 844 844 843 843 842 840 840 840 840 839 839 839 838 837 836 835 834 833 831 830 828 826 824 824 823 820 815 813 814 813 811 810 809 808 808 807 806 806 805 804 803 802 801 801 801 801 800 800 799 798 798 797 797 796 796
844 843 843 843 843 843 843 843 843 843 843 843 843 843 842 842 842 842 842 842 841 841 840 839 838 838 839 839 838 838 837 836 835 834 833 832 831 829 828 825 824 822 822 822 819 815 813 813 812 810 809 809 807 806 806 805 804 804 803 802 801 800 800 799 799 798 798 798 797 797 796 796 795 795
842 842 841 841 841 841 842 842 842 842 842 842 841 842 842 842 842 841 841 841 840 839 839 838 838 837 838 837 837 836 836 834 833 832 831 830 829 828 826 824 823 822 822 821 820 816 814 813 811 809 808 807 806 805 804 803 803 802 801 800 799 799 798 798 797 797 796 796 796 795 795 794 794 793
840 840 840 840 840 840 840 840 840 840 840 840 840 840 840 841 841 840 840 840 839 838 837 837 837 836 836 836 835 834 833 832 832 830 829 828 828 828 826 824 823 822 822 822 820 817 814 813 812 809 807 806 805 803 802 802 801 801 800 799 798 797 796 796 795 795 794 794 794 793 793 792 792 791
839 839 838 838 839 839 838 838 838 838 838 839 839 839 839 840 839 839 839 838 837 836 835 834 834 834 833 833 832 832 831 831 830 829 828 827 827 827 827 826 824 822 822 821 820 817 815 813 812 810 806 804 803 802 801 800 799 799 798 797 795 794 794 793 793 792 792 792 791 791 791 790 790 789
837 837 837 837 837 837 836 836 836 836 836 837 838 838 838 838 838 838 837 836 835 834 834 833 832 831 831 830 830 829 829 829 828 827 826 826 826 826 825 825 824 822 821 820 820 817 815 813 812 810 807 803 800 799 799 798 797 796 796 794 793 792 792 791 790 790 789 789 789 789 788 788 787 787
836 836 835 835 835 835 835 835 835 835 836 836 837 837 837 837 837 836 836 835 835 834 833 832 831 830 829 828 828 828 827 827 827 826 826 825 826 825 823 822 822 822 819 819 819 817 814 812 811 810 808 805 800 797 796 796 795 794 794 793 792 791 790 789 788 787 787 786 786 786 786 785 785 784
835 835 835 834 834 834 834 834 834 834 835 835 835 836 836 836 836 835 835 834 833 833 832 831 830 829 828 827 827 826 826 825 825 825 825 825 825 824 822 820 820 819 817 817 818 816 814 812 810 809 807 804 801 797 795 794 793 793 793 792 791 789 788 787 786 785 785 784 783 783 783 782 782 782
835 835 835 834 834 834 834 834 834 834 834 834 834 834 834 835 834 834 833 832 832 832 831 830 829 828 828 826 826 825 824 824 824 824 824 824 824 823 822 820 818 817 815 815 815 815 812 810 809 807 805 803 801 799 796 793 792 792 791 790 789 788 787 786 784 783 783 782 781 781 780 780 779 779
834 834 835 835 834 833 833 832 833 833 833 832 832 833 833 833 833 832 832 831 831 831 830 830 829 828 827 826 825 824 824 823 823 822 822 822 822 821 820 819 818 816 815 813 813 812 811 809 807 806 804 803 801 799 796 794 792 791 790 789 788 787 786 785 783 782 781 781 780 779 778 777 777 776
834 834 834 835 834 833 832 831 831 831 831 831 831 831 831 832 831 831 830 830 830 830 830 829 828 828 827 826 825 824 823 822 822 821 821 821 820 820 819 817 816 815 814 812 811 810 809 807 806 805 803 803 801 799 797 795 792 791 789 787 786 785 785 784 782 781 780 779 778 777 776 775 774 774
834 834 834 834 833 832 831 830 830 829 829 829 829 830 830 831 831 830 830 830 830 830 830 829 828 828 827 827 826 824 823 822 821 821 820 819 819 818 817 816 814 813 812 811 809 808 807 806 805 804 803 802 801 800 798 795 792 791 789 787 784 783 782 782 781 780 778 777 777 776 775 774 773 772
833 833 833 833 832 831 830 829 829 829 829 829 829 830 830 830 830 830 831 831 831 830 829 829 828 828 827 826 825 824 823 822 821 820 819 818 818 817 815 814 812 811 811 810 809 808 807 806 804 803 802 801 800 799 797 794 791 789 788 787 784 781 780 780 779 778 777 776 775 774 774 773 772 770
832 832 832 831 831 830 829 829 829 828 829 829 829 829 829 830 830 831 831 831 830 830 830 830 829 828 827 826 825 824 823 822 821 820 820 818 817 816 815 813 812 811 810 810 809 808 807 806 804 803 801 800 798 796 795 793 791 788 786 785 784 782 779 778 777 776 776 775 774 773 772 772 770 768
832 831 831 830 830 830 829 829 828 828 828 829 829 829 829 830 830 830 831 830 830 830 831 830 829 828 828 827 826 824 823 822 821 820 820 819 818 816 815 814 812 811 810 809 808 807 807 806 805 803 802 800 797 795 793 792 790 787 785 783 783 782 780 779 777 775 775 773 772 770 770 769 769 767
831 831 830 830 829 829 829 828 828 828 828 829 829 830 830 830 830 830 830 830 831 831 831 830 830 829 828 827 826 824 823 823 822 821 820 819 817 816 816 814 813 811 810 809 808 807 806 805 804 803 801 799 797 795 793 789 787 786 784 783 782 781 780 779 777 775 774 772 770 767 766 766 766 765
831 830 830 829 828 827 828 828 827 828 829 829 830 830 830 831 831 830 830 831 831 831 831 831 830 829 828 827 826 825 824 823 822 821 820 819 818 817 815 814 813 812 811 809 808 807 805 803 802 800 798 796 795 793 792 788 786 785 784 783 782 780 779 778 777 775 773 772 769 766 763 761 761 761
831 830 829 829 827 827 827 827 827 828 828 829 830 830 831 832 831 830 831 832 831 831 831 831 830 829 828 827 826 825 825 824 823 822 820 819 818 817 816 815 813 812 811 810 809 807 805 803 801 798 796 793 791 790 790 788 787 786 785 783 782 781 779 777 776 774 772 770 769 766 762 758 757 757
830 830 829 828 827 827 827 827 828 828 829 829 831 831 831 832 831 831 831 831 831 831 831 831 830 829 828 828 827 827 826 825 824 823 821 820 819 818 817 816 814 813 812 811 810 808 807 805 802 799 796 793 791 790 789 788 788 787 785 784 782 780 778 776 774 772 770 769 767 766 762 758 754 754
830 829 829 828 828 828 828 828 828 829 829 830 831 831 831 832 831 831 832 831 831 831 831 831 831 830 829 829 828 828 827 826 825 824 823 822 820 819 818 817 815 814 814 812 811 810 807 805 803 801 798 796 794 792 789 787 787 789 789 787 783 780 777 775 772 770 769 768 767 765 763 759 754 752
830 830 830 829 829 829 828 828 829 829 830 831 831 831 831 831 831 831 832 832 832 832 832 832 831 830 830 829 828 828 827 826 825 824 823 822 821 820 819 818 816 816 814 813 812 810 808 806 804 802 801 799 798 795 790 785 783 785 789 789 784 780 777 775 773 770 768 767 766 764 762 759 755 752
831 831 830 830 830 830 830 830 830 831 831 832 832 831 831 831 832 832 832 832 833 832 832 832 831 831 830 829 828 828 827 826 825 825 824 823 822 821 820 819 818 817 815 813 811 809 808 806 805 803 802 801 799 797 795 789 782 780 784 787 784 780 778 776 774 771 769 767 765 762 759 757 754 751
831 831 831 831 830 830 830 831 831 832 832 832 832 832 832 832 833 833 833 833 833 833 833 832 831 831 830 829 828 828 827 826 826 825 824 824 823 822 821 820 819 817 815 812 811 809 808 807 806 804 803 801 799 797 795 790 783 779 780 782 783 782 779 777 774 772 769 766 764 761 757 754 750 748
831 831 831 830 830 830 831 831 831 832 832 832 832 833 833 833 834 834 834 834 834 833 833 832 831 830 829 829 828 828 827 827 826 825 825 824 824 823 822 821 819 817 814 812 810 808 807 806 805 804 802 800 798 795 792 789 784 780 777 778 779 780 779 777 775 773 769 767 764 761 757 754 750 746
832 832 832 831 831 830 830 831 831 832 833 833 833 833 833 833 834 834 834 834 834 834 833 832 831 831 830 829 829 828 828 827 826 826 825 825 824 823 822 820 819 817 815 812 810 807 806 804 803 801 799 797 796 793 790 788 785 781 777 775 774 775 775 775 774 772 769 766 764 760 756 753 750 745
835 834 834 833 833 832 832 831 832 833 833 833 834 834 834 834 834 835 835 834 834 834 833 832 832 832 831 830 829 829 828 828 827 826 825 824 823 822 821 820 818 817 815 812 809 807 804 802 800 799 797 796 794 793 790 787 785 782 778 775 772 771 770 769 769 768 766 765 763 760 758 755 751 746
837 837 836 835 835 835 834 834 834 834 834 834 834 834 834 835 835 835 835 834 834 834 833 832 832 832 831 830 829 829 828 828 827 826 825 824 823 822 820 819 817 815 813 811 808 805 803 801 799 797 795 793 793 791 789 786 784 781 779 777 773 770 767 765 763 761 760 759 759 758 755 753 750 746
839 838 838 837 837 836 836 835 835 836 836 835 835 835 835 835 835 835 835 834 834 833 833 832 832 832 831 830 830 829 828 827 827 826 824 823 822 821 819 818 816 814 812 810 806 803 801 799 797 795 793 791 790 789 787 785 783 781 779 776 774 771 769 765 762 758 753 751 752 752 750 748 746 743
Wind_Speed
6 6 5 5 5 6 5 4 4 3 2 2 2 4 2 1 0 1 1 3 5 8 10 6 3 6 9 10 9 11 10 9 11 12 12 12 13 14 17 18 16 14 14 14 12 11 13 14 14 16 16 15 15 14 15 15 15 15 14 13 12 12 12 9 7 6 6 6 7 7 6 1 3 7
6 7 5 4 4 5 5 4 5 5 3 3 4 4 3 2 2 2 1 2 4 7 9 8 8 9 11 10 9 11 11 10 13 13 12 12 13 15 18 17 16 15 15 15 13 12 14 14 13 15 15 14 15 15 15 16 15 15 15 13 11 11 12 10 8 6 5 5 5 5 6 3 2 7
7 7 6 5 5 4 5 4 5 7 4 4 5 3 3 5 5 5 3 1 3 6 8 10 11 11 12 11 11 12 11 11 13 12 11 13 14 16 18 18 17 14 12 14 14 13 15 13 12 15 15 14 15 16 17 17 16 15 15 13 11 11 11 11 9 7 5 5 4 3 4 4 1 5
8 7 7 6 5 5 5 5 6 7 6 6 7 6 5 5 6 7 5 4 5 8 9 10 11 12 13 12 11 12 12 11 12 12 12 14 15 16 18 19 17 14 15 16 15 15 16 13 13 15 14 13 15 17 18 19 18 17 15 14 12 11 10 11 10 8 6 5 5 3 2 2 2 3
9 8 7 6 6 6 6 7 7 7 7 7 6 6 7 5 5 6 5 5 7 9 9 10 11 12 11 11 11 12 12 13 13 13 14 15 15 16 17 17 17 18 20 18 15 16 17 15 14 16 15 14 16 18 19 19 19 18 16 15 13 12 11 11 11 9 8 6 6 5 3 1 1 2
9 8 8 7 8 8 8 8 9 8 8 7 5 6 7 5 6 7 6 5 5 8 11 11 11 12 11 11 12 12 14 14 13 14 15 15 15 15 15 16 17 19 18 16 17 19 18 17 16 17 16 16 18 20 19 19 19 18 17 15 14 13 12 11 11 11 9 8 7 7 5 3 2 3
10 9 9 9 8 9 9 9 9 8 8 6 4 5 6 5 6 7 7 6 5 7 10 11 11 11 12 12 13 13 13 13 13 14 14 14 15 15 15 16 17 18 18 17 19 19 18 18 19 19 18 17 19 21 20 19 18 18 17 16 14 13 12 11 11 11 10 9 8 8 8 6 4 4
11 11 11 10 9 9 9 8 8 8 8 6 6 6 6 5 6 7 7 8 7 7 10 11 11 12 13 14 14 13 12 13 14 14 13 13 15 14 13 14 16 17 19 19 19 18 19 22 24 21 19 18 21 22 21 19 19 18 16 15 14 13 13 13 12 12 11 10 10 9 9 9 7 5
11 11 11 10 9 9 9 9 8 9 8 8 8 8 7 6 7 7 7 8 9 9 11 12 12 13 14 15 14 13 13 14 14 13 14 15 16 14 12 13 14 15 17 19 19 20 22 24 22 18 17 20 22 22 21 20 19 19 17 15 14 13 12 13 13 13 12 11 11 10 10 11 10 8
12 12 11 11 10 10 10 10 9 9 8 8 9 9 8 7 8 9 9 10 10 11 12 13 14 14 14 14 13 12 13 15 17 18 17 17 16 14 13 13 13 14 16 19 20 21 22 21 19 17 19 22 23 23 22 21 20 19 18 16 15 14 13 13 14 14 13 13 12 11 11 12 12 11
12 12 12 12 12 11 12 11 10 10 9 9 9 9 9 8 8 9 10 10 10 10 11 12 13 13 14 14 14 15 16 17 18 17 17 17 15 13 13 14 16 17 20 21 21 19 19 19 19 20 21 22 24 24 23 22 20 18 16 16 15 15 14 14 15 14 14 14 13 13 12 12 13 13
13 13 13 13 13 13 14 13 12 10 9 9 8 8 9 9 8 8 9 10 10 10 11 13 13 15 16 16 18 18 17 16 15 14 15 15 14 15 19 21 21 21 21 20 19 19 19 21 22 22 23 25 25 23 22 22 20 16 13 13 14 14 15 16 14 14 13 13 14 14 13 13 14 14
14 14 13 13 13 14 15 15 14 12 11 10 9 8 8 8 8 9 9 10 11 11 12 13 14 15 16 17 18 17 14 15 15 15 14 14 16 20 24 25 23 21 20 19 20 21 21 23 24 24 26 27 24 21 23 23 19 13 11 12 12 13 15 16 14 13 13 13 14 15 15 14 14 15
13 13 13 14 14 14 14 14 13 15 15 14 14 14 13 12 11 11 11 11 11 12 13 14 14 14 15 15 16 16 16 16 15 16 17 19 21 21 20 22 23 21 19 20 22 24 25 25 26 27 27 26 23 21 22 21 17 14 13 14 13 13 14 16 15 14 13 14 14 15 15 16 15 15
13 13 13 14 14 14 13 12 12 14 15 15 16 16 16 16 15 15 15 14 14 13 13 14 14 13 14 15 16 17 17 16 16 19 21 20 19 18 15 16 20 21 20 22 25 29 30 27 26 27 26 23 21 20 19 19 19 19 18 16 14 13 14 16 17 15 14 14 15 16 16 16 16 16
15 14 13 13 13 12 12 12 12 14 14 13 14 14 14 14 15 17 18 19 19 17 15 15 14 15 16 17 17 16 16 17 20 21 19 17 17 17 15 15 20 24 24 24 26 30 30 26 24 24 24 23 21 18 18 19 19 19 19 18 16 15 16 17 16 15 15 15 16 16 17 17 17 17
14 13 13 14 15 13 11 12 12 12 12 12 13 13 13 14 15 17 18 20 22 21 20 20 21 20 18 17 18 18 18 20 20 18 17 16 16 17 18 20 25 28 27 25 25 27 27 24 22 23 24 23 21 19 18 18 18 19 21 20 19 18 17 17 17 15 15 15 16 16 17 17 18 18
13 13 13 14 14 14 14 14 14 13 13 13 13 13 14 16 17 18 18 19 20 22 24 25 26 25 22 21 21 20 20 19 17 15 16 17 17 19 22 24 27 27 24 21 21 22 24 22 20 21 23 22 20 19 18 19 19 20 22 22 22 22 20 18 17 16 16 16 16 16 17 17 17 18
14 13 12 12 11 11 12 13 13 12 13 14 14 13 13 15 16 16 17 18 19 21 23 26 27 27 24 21 20 19 16 15 14 15 18 20 21 23 23 23 23 21 18 17 16 17 20 22 20 20 21 20 19 20 21 22 21 19 20 21 22 22 22 20 18 17 17 17 16 16 17 18 18 19
12 10 9 11 12 11 11 11 12 12 12 13 13 12 12 13 14 15 16 17 18 18 18 20 22 23 21 20 20 18 15 15 17 19 22 23 22 20 20 20 20 17 15 16 15 15 18 19 19 21 21 20 20 22 23 23 20 18 19 20 21 21 21 21 21 20 19 18 16 16 16 17 18 19
10 9 9 11 12 13 13 13 12 11 11 12 11 11 12 13 14 15 15 15 15 14 13 14 15 16 16 16 17 16 15 17 20 21 22 22 20 17 16 16 17 18 18 17 15 14 15 16 17 20 22 21 21 21 21 21 19 19 21 23 24 24 21 21 22 23 23 22 19 18 17 17 17 18
13 13 12 12 12 13 14 15 13 11 11 11 11 10 11 13 14 13 12 10 11 12 13 14 14 14 14 15 16 18 19 21 22 21 20 19 17 16 16 16 18 20 18 15 13 14 17 17 17 19 20 21 21 19 18 20 20 20 22 25 26 24 22 21 21 22 24 25 23 21 19 19 19 19
14 14 13 12 11 10 12 12 11 10 11 11 9 9 10 12 13 12 11 12 13 15 15 15 15 16 17 18 19 20 20 19 18 17 16 15 13 14 15 17 17 15 12 13 15 18 19 19 18 18 16 14 16 20 21 20 21 22 23 24 23 22 22 23 21 19 20 22 23 23 22 22 21 21
11 11 10 10 9 8 9 8 8 8 9 8 8 9 10 12 13 15 17 17 18 18 17 16 16 16 16 16 16 15 16 16 15 14 14 13 11 12 15 17 15 14 15 17 19 20 20 19 19 20 16 10 12 20 23 22 21 21 21 21 22 22 23 23 22 20 19 19 19 20 21 23 24 24
7 6 7 9 9 8 8 8 8 8 8 9 10 11 11 13 14 16 18 18 18 17 17 16 15 14 14 15 15 14 16 17 15 14 15 15 13 13 16 18 18 19 20 21 20 21 22 20 19 20 19 15 14 19 23 23 21 18 17 20 23 22 22 23 22 20 20 19 18 18 19 21 23 25
4 5 6 8 9 8 8 8 9 8 9 10 11 11 12 12 13 13 14 15 15 15 14 14 14 14 14 15 15 15 16 17 15 14 16 16 15 15 16 17 18 20 23 24 23 22 22 21 20 19 19 18 17 18 20 21 20 18 20 23 23 21 21 22 21 19 19 19 18 18 19 19 20 22
4 6 6 6 8 9 9 10 10 10 11 11 12 12 12 11 11 12 13 13 13 12 12 12 13 14 14 13 13 15 16 16 15 15 16 16 16 16 16 17 17 19 23 24 23 22 21 22 22 21 19 19 18 16 16 17 20 21 23 24 23 21 19 20 21 21 22 21 20 21 21 20 19 19
3 5 6 7 8 9 9 9 10 9 9 10 10 10 9 8 9 10 10 10 10 10 11 12 12 12 11 10 12 15 16 15 15 16 16 16 16 15 15 17 18 18 21 21 21 20 20 21 21 21 20 19 18 15 15 18 21 22 22 24 24 23 21 21 22 21 21 22 23 23 23 22 20 20
3 4 6 7 7 6 5 5 4 4 5 6 6 6 6 7 9 9 9 9 9 9 9 9 10 10 11 12 14 15 16 15 15 15 15 16 17 17 18 20 20 19 19 19 19 19 18 17 18 18 18 19 18 17 18 20 22 22 22 23 26 27 26 24 21 20 20 21 23 24 23 22 21 21
5 7 8 7 5 3 3 3 3 3 3 4 5 7 8 9 8 7 7 7 7 8 9 10 11 12 13 14 15 16 16 15 13 14 16 18 20 21 21 22 21 19 17 15 16 17 16 15 15 16 17 19 19 20 20 20 22 24 25 25 25 27 27 26 24 23 22 21 22 23 22 21 21 23
8 10 10 7 3 0 2 3 4 5 4 4 6 8 9 8 6 6 5 5 8 11 11 11 12 13 13 13 14 15 15 14 13 14 16 17 20 22 22 21 20 19 17 15 15 16 16 17 17 17 20 21 21 22 23 21 21 23 26 26 24 23 25 28 28 26 23 22 24 24 22 19 19 23
8 10 10 8 6 5 2 2 3 4 2 1 4 5 6 7 7 6 7 10 12 14 14 13 13 13 12 12 14 14 13 12 12 13 14 15 18 19 19 18 18 19 19 18 17 17 17 17 18 19 21 22 23 25 25 22 20 21 24 24 22 21 22 25 25 25 24 24 25 25 23 20 19 21
7 8 8 10 10 9 7 6 4 2 0 2 3 6 7 8 8 8 9 12 15 16 16 15 14 14 14 14 15 14 13 13 13 14 15 15 16 17 16 16 16 18 19 19 19 20 19 19 20 22 23 23 23 23 23 23 23 23 21 19 18 19 20 21 22 24 25 26 27 27 26 24 23 23
7 8 9 12 10 5 6 6 3 2 3 3 5 8 9 10 10 10 11 14 15 15 14 15 16 16 16 16 15 15 16 17 16 16 16 16 17 17 17 16 16 16 18 19 19 20 22 23 25 26 26 24 22 20 20 22 24 21 17 16 18 20 21 22 25 27 28 29 29 29 30 29 27 25
7 8 10 13 9 3 3 3 3 3 4 6 7 8 8 9 10 11 14 16 14 12 12 15 16 16 16 15 17 18 18 18 17 17 17 18 18 18 18 17 17 19 20 20 20 22 24 27 28 27 26 24 21 18 15 13 14 19 23 22 23 25 27 29 31 32 32 31 30 28 29 30 29 26
8 9 11 12 9 5 4 4 4 5 6 8 7 7 7 8 9 12 14 15 12 11 12 15 17 17 15 16 18 17 17 17 18 17 17 18 19 19 18 18 19 20 20 19 21 24 25 25 25 24 21 17 13 11 11 12 17 25 30 30 30 32 33 34 33 32 31 30 28 26 26 27 29 28
8 9 10 11 10 8 7 6 6 8 9 9 9 8 7 8 10 13 13 13 12 13 14 15 16 16 16 16 16 15 15 16 17 16 17 17 18 18 18 18 18 19 20 21 24 25 24 23 23 20 15 10 6 6 12 22 28 28 24 25 29 32 33 33 33 31 29 27 26 25 25 27 30 31
6 7 9 10 11 11 11 10 11 11 10 9 10 10 10 11 13 13 12 12 14 16 15 14 14 15 15 14 13 14 15 15 15 15 16 17 17 18 18 17 18 20 22 24 25 23 21 20 19 16 14 10 6 6 13 25 32 28 21 22 27 30 30 29 28 28 28 27 26 26 28 29 32 34
3 4 6 7 8 9 10 10 10 10 9 9 10 12 13 13 13 12 12 13 15 17 16 14 13 15 15 13 12 13 15 15 15 15 16 16 17 18 19 20 21 23 24 24 22 20 19 18 18 19 20 18 15 16 20 27 34 35 30 24 23 24 27 27 27 27 28 29 29 31 33 34 34 34
4 4 3 4 5 6 6 6 7 8 9 10 11 12 14 14 13 12 13 14 16 18 17 14 14 15 15 14 14 15 15 15 15 15 16 18 19 21 23 24 24 23 22 21 20 19 19 19 20 23 25 24 25 27 28 28 31 34 31 23 19 21 24 26 27 28 29 30 32 33 34 34 33 32
8 8 9 9 7 5 4 4 4 5 5 7 8 10 11 12 12 13 14 14 15 17 16 14 15 16 16 16 16 16 16 17 16 16 18 19 20 22 23 23 23 22 21 21 21 21 21 21 23 24 24 24 25 25 22 19 21 26 29 28 25 23 21 21 25 28 31 33 35 33 31 31 31 31
18 17 18 18 16 13 10 9 7 5 5 7 8 9 9 10 11 12 13 14 15 16 16 17 17 18 17 17 17 17 17 16 16 17 18 19 19 20 21 21 22 23 23 23 24 25 25 26 25 24 23 22 22 19 16 15 18 23 29 31 29 26 24 25 27 28 28 29 31 30 29 28 25 22
17 17 18 19 18 17 16 15 14 12 10 10 10 10 10 10 10 11 11 13 14 15 16 17 18 18 18 17 17 17 17 17 17 18 18 18 19 19 21 21 22 23 24 25 27 28 28 26 25 23 22 21 20 19 18 20 22 24 26 28 31 33 32 30 27 25 24 25 27 28 29 28 24 21
15 15 16 17 17 16 15 14 14 13 13 12 12 12 11 11 11 11 11 11 12 13 14 15 16 17 17 16 16 17 18 18 19 19 20 20 20 21 22 23 24 25 26 27 28 27 26 25 25 24 22 20 19 19 20 22 22 23 24 27 30 33 33 32 32 32 32 31 28 26 27 29 28 29
14 14 14 14 15 16 15 14 13 13 13 13 13 13 13 11 11 11 11 12 13 14 14 14 15 16 17 17 17 17 17 17 18 18 19 20 21 22 23 24 26 27 27 27 27 27 26 25 25 24 22 20 19 19 20 21 22 23 25 26 26 28 30 32 34 36 36 34 30 26 26 27 27 28
Wind_Direction
271 282 264 250 258 262 273 288 283 279 293 300 294 293 316 36 304 268 315 332 333 331 332 339 343 341 343 337 331 333 325 322 332 330 324 326 324 317 312 312 312 301 292 300 309 323 337 340 343 344 342 341 341 340 335 329 324 319 315 312 306 299 299 303 308 318 330 348 10 10 1 23 163 168
266 278 276 270 258 257 279 290 263 259 285 301 298 310 305 261 229 206 257 300 302 317 327 325 318 321 329 329 324 327 327 326 326 319 317 323 321 313 310 313 316 302 286 289 296 311 324 329 338 343 340 342 344 343 339 332 325 320 317 315 310 301 296 296 296 300 313 326 353 15 4 350 170 175
259 264 265 276 269 262 283 290 275 271 265 273 290 292 264 253 235 221 213 215 271 299 315 316 316 316 320 327 325 321 320 319 319 317 318 322 319 313 309 314 321 314 297 292 293 305 313 316 334 340 338 342 343 342 342 336 329 322 317 316 312 305 298 293 290 288 292 301 317 356 11 350 297 180
258 256 248 258 262 259 271 274 276 272 251 252 265 260 260 259 239 231 223 214 260 288 305 314 317 316 319 325 323 320 320 317 316 320 321 318 314 311 311 318 327 328 319 306 300 307 306 307 325 332 332 337 340 341 342 339 333 326 318 315 311 306 300 295 288 281 279 279 287 303 354 353 317 208
254 252 244 247 256 255 258 262 269 271 260 253 248 249 260 262 250 252 242 231 260 291 306 309 309 313 317 316 314 318 317 313 313 317 318 314 312 312 316 324 326 322 318 309 307 313 306 303 317 322 324 331 334 338 338 336 335 331 323 316 311 306 300 296 290 280 273 269 268 273 272 283 296 253
249 250 247 247 253 252 251 253 258 264 265 256 240 241 253 268 282 275 259 240 253 291 306 311 310 314 316 311 313 315 310 309 312 314 314 315 315 315 320 323 319 318 321 317 318 318 308 304 312 313 316 324 329 332 330 329 331 331 327 320 312 308 301 296 291 282 272 265 260 260 258 245 231 243
245 247 246 246 249 250 248 248 251 262 271 272 267 257 255 268 274 260 254 262 264 283 302 312 313 313 314 310 307 307 306 309 310 308 310 314 315 314 316 319 318 322 328 325 323 322 315 315 316 308 308 318 328 328 323 322 324 325 326 322 314 309 306 299 292 283 275 265 258 255 252 248 234 222
241 243 244 244 246 251 255 253 255 265 271 272 275 268 261 264 264 254 255 271 277 280 290 301 306 305 304 302 299 298 300 302 302 301 304 307 310 311 312 317 320 323 326 325 329 332 325 320 315 307 305 316 326 326 320 316 316 314 316 318 314 309 306 304 297 286 278 268 259 254 249 247 242 229
243 245 247 248 247 252 256 255 256 262 263 266 269 266 262 266 268 263 258 264 273 273 272 282 293 294 294 296 298 301 303 303 301 297 296 296 300 303 304 311 318 321 323 326 330 329 319 314 315 314 315 320 324 325 320 314 310 306 305 306 307 305 302 304 303 292 282 272 263 256 250 246 243 237
247 248 251 252 251 251 254 253 254 258 258 262 268 267 268 273 273 273 273 268 268 270 272 279 287 289 293 298 304 307 304 300 295 289 289 294 301 304 303 309 320 322 321 322 321 318 315 317 325 327 324 323 324 322 317 311 305 301 298 296 297 298 298 304 306 297 286 276 267 259 252 247 242 239
250 250 249 250 248 246 249 251 254 259 258 257 265 271 272 273 270 272 279 281 283 288 291 292 293 295 299 302 303 302 295 291 292 291 292 301 317 328 324 323 326 322 319 319 317 316 317 320 322 321 318 320 322 317 312 308 304 298 293 289 290 294 300 306 307 300 288 279 271 263 255 249 244 241
253 252 251 250 248 246 246 245 246 255 257 254 259 267 271 276 280 282 289 296 299 300 297 295 296 297 298 296 294 293 291 295 306 310 307 314 334 341 330 323 321 319 318 318 315 313 314 313 314 314 313 316 319 316 312 310 305 293 281 278 285 297 306 309 308 301 291 281 273 267 261 253 247 243
254 255 253 252 252 251 248 242 239 241 245 247 249 254 264 276 284 285 287 289 291 292 288 288 290 291 291 292 294 298 304 312 319 325 330 336 340 334 323 317 317 320 319 316 312 310 311 311 311 311 311 315 318 315 311 310 303 288 276 277 286 302 311 312 309 299 290 284 276 269 265 260 252 246
256 258 256 255 255 255 253 252 244 237 237 243 249 254 259 262 264 269 274 277 278 279 279 281 286 289 290 296 304 313 318 319 327 338 341 337 331 326 320 315 317 321 323 319 315 310 310 310 309 309 311 313 315 312 312 315 314 306 301 297 295 301 310 315 313 301 289 283 279 272 266 263 258 252
259 262 265 265 262 258 259 262 256 248 248 253 257 260 264 262 259 259 262 265 266 269 274 279 285 289 293 301 310 313 313 315 325 331 329 325 321 318 314 310 312 318 321 319 313 308 309 311 309 309 312 313 314 314 313 315 316 315 313 307 300 301 308 316 316 307 294 285 280 275 269 265 262 257
260 262 267 274 274 269 264 262 258 257 258 260 262 264 267 266 263 261 260 261 263 266 272 278 281 282 288 293 297 298 301 307 313 315 314 313 312 308 306 303 304 309 314 313 307 304 309 313 310 309 311 311 309 307 305 304 305 310 312 307 301 301 305 311 314 310 302 292 284 279 273 267 263 260
258 261 266 274 279 282 280 276 271 266 262 263 265 267 269 271 272 270 267 264 264 265 265 267 270 272 273 276 280 287 293 297 302 305 306 308 307 304 303 301 301 305 310 308 301 298 304 311 310 308 311 312 308 308 313 314 314 316 316 309 301 297 298 302 304 305 305 300 291 284 277 272 267 261
271 274 278 281 284 289 290 288 286 281 274 270 268 267 269 273 276 278 278 275 270 268 265 263 265 267 269 270 275 286 293 292 294 302 307 309 307 304 303 302 302 307 310 305 293 290 300 310 310 307 311 316 318 319 321 322 323 322 318 314 306 296 291 295 296 297 302 303 295 287 282 278 273 267
289 288 288 290 295 302 305 299 294 289 281 274 271 272 273 274 276 280 283 283 281 278 272 267 267 269 270 269 273 285 297 298 299 308 311 310 308 307 306 305 305 308 312 308 293 288 302 313 313 311 316 320 320 318 318 322 324 320 317 319 315 301 290 289 292 293 297 299 294 289 285 282 279 274
299 298 293 290 291 299 308 310 307 304 293 280 274 275 278 283 286 287 288 290 293 294 285 274 272 272 269 269 276 287 301 310 312 314 312 311 311 310 306 304 305 308 313 316 310 304 311 319 320 318 321 323 320 320 323 328 328 322 318 321 324 315 299 289 289 291 292 292 289 286 285 284 282 279
283 291 294 294 293 292 291 290 291 298 301 295 289 285 287 292 295 297 299 298 300 307 307 296 290 287 281 280 286 291 297 306 311 310 308 310 312 309 304 303 307 310 312 315 316 315 318 324 325 321 320 320 320 322 327 328 326 322 318 317 321 322 314 299 292 289 288 287 285 282 283 283 281 278
275 285 288 286 284 280 276 272 269 276 288 294 300 303 299 295 295 299 305 305 301 306 310 310 307 302 298 297 299 300 300 303 308 308 305 308 311 305 302 308 310 310 310 311 315 320 321 321 323 324 319 316 316 318 322 324 323 320 317 317 320 323 320 314 304 294 288 285 282 280 281 280 277 275
274 278 280 281 278 272 270 267 266 276 284 287 295 304 307 306 304 304 306 309 309 307 307 309 308 305 305 305 306 308 308 309 313 313 308 311 312 304 304 312 313 308 307 309 313 318 318 315 317 320 318 314 313 315 318 320 319 317 320 325 328 325 322 320 315 306 298 291 285 281 278 275 274 274
275 273 273 275 273 267 266 267 270 282 290 291 292 296 302 305 301 298 299 303 307 306 306 306 306 306 307 307 308 311 310 310 313 313 309 310 311 304 303 306 303 292 294 303 310 314 315 313 313 315 313 303 301 309 315 317 317 319 325 330 330 325 322 322 319 314 309 304 296 288 281 276 273 272
284 286 273 267 268 271 274 276 279 285 291 293 292 292 293 293 292 295 300 304 306 306 307 306 303 303 306 309 310 308 307 308 310 311 311 312 313 311 307 304 297 289 292 302 309 312 312 310 310 312 312 304 296 303 312 316 317 320 324 328 331 330 327 324 321 316 314 312 307 298 292 287 280 273
309 319 296 271 267 275 281 282 283 287 290 290 290 291 291 294 297 298 299 302 305 305 303 303 303 304 309 314 317 316 315 316 313 311 314 316 318 317 309 301 294 291 296 307 313 312 306 303 305 308 308 306 304 307 312 315 317 320 321 325 331 331 326 324 321 317 316 314 309 304 303 302 295 284
350 347 326 296 283 286 290 291 292 292 292 292 292 294 298 301 301 297 294 296 301 303 303 304 306 311 315 321 328 333 336 335 326 321 322 324 324 323 316 309 304 300 303 311 317 314 305 301 303 304 302 304 308 311 313 312 313 317 319 322 327 327 321 319 316 313 311 309 308 308 307 305 304 298
9 348 323 307 301 299 297 296 294 291 292 295 296 299 306 308 303 305 311 312 308 303 302 304 312 323 338 351 354 352 351 348 342 338 336 336 336 334 329 325 322 318 317 318 320 318 309 302 303 304 302 304 305 306 310 309 309 313 315 316 320 320 317 315 313 312 311 310 312 314 310 305 303 301
338 326 313 304 299 305 316 318 316 319 320 319 313 308 304 301 307 321 330 324 315 313 318 331 344 356 3 3 357 348 342 343 347 346 341 339 338 333 329 326 324 325 327 324 322 322 314 306 309 312 309 309 305 301 303 305 305 308 310 311 313 315 316 317 316 314 313 313 314 314 311 306 302 296
319 316 310 303 297 322 13 5 354 0 352 334 334 338 328 312 309 322 327 326 343 5 10 5 1 356 349 343 341 339 338 341 344 341 337 336 334 332 331 328 325 327 331 330 330 336 335 331 331 329 324 321 314 307 308 308 305 306 307 307 307 310 315 320 320 319 318 314 313 314 312 308 303 296
297 297 296 292 278 298 49 18 349 340 332 326 339 354 358 347 333 329 339 14 37 32 18 4 352 344 340 339 338 337 337 336 334 333 334 333 332 336 337 332 326 327 331 332 336 344 347 344 342 337 330 323 315 312 314 309 301 302 306 307 304 304 312 318 320 322 322 316 313 317 318 312 305 302
288 289 290 286 270 254 252 321 323 312 311 353 353 358 14 18 10 12 30 42 38 23 10 359 348 343 343 340 335 331 330 330 331 332 332 328 327 332 332 327 323 326 330 333 336 339 341 341 339 335 329 321 313 310 308 302 296 298 301 303 306 309 315 322 323 325 327 324 320 322 321 313 307 305
300 302 306 297 280 254 240 252 274 293 124 101 49 29 32 25 20 33 41 28 17 10 4 355 348 348 344 335 333 335 336 338 339 336 334 330 328 327 323 319 319 324 329 332 335 336 338 337 333 328 324 320 315 310 305 297 293 295 297 304 317 324 327 330 328 325 328 327 322 318 315 310 306 304
315 323 319 307 295 257 235 255 281 28 56 61 44 34 31 24 27 44 39 17 8 6 2 356 353 349 338 334 343 351 348 346 344 342 341 341 337 333 328 324 326 334 338 337 338 340 340 336 330 327 326 325 321 318 310 295 289 298 317 332 337 336 333 329 325 320 319 318 315 311 308 305 303 303
330 324 312 308 312 310 284 308 2 40 47 49 43 32 20 13 22 34 27 16 12 8 2 359 354 344 341 350 359 356 348 345 346 346 347 347 343 339 338 337 341 346 346 344 344 344 340 334 329 326 325 325 322 323 326 318 318 337 349 346 337 331 325 319 316 314 312 312 311 308 304 302 303 304
339 332 322 319 326 328 319 340 7 16 26 34 29 21 15 14 26 31 23 17 18 15 9 2 351 343 350 1 358 349 344 346 347 347 347 345 342 342 344 345 345 344 343 343 341 337 332 329 326 321 320 323 325 324 327 327 328 336 339 334 327 323 319 315 314 313 312 312 312 306 299 298 300 304
331 330 332 338 351 359 358 0 7 16 27 25 10 4 9 15 23 27 24 22 23 19 10 359 346 343 351 355 349 343 343 345 344 344 344 342 342 343 343 342 341 341 341 338 333 328 325 322 320 322 328 335 334 322 316 313 312 317 326 325 318 316 316 314 312 312 313 312 310 305 301 300 301 304
329 328 336 350 2 7 8 13 15 15 17 11 2 6 17 21 20 19 18 19 19 11 2 353 345 342 341 342 341 340 340 340 342 343 343 342 342 342 341 341 342 340 334 327 322 320 320 317 320 336 352 351 332 319 320 316 312 312 317 317 310 310 312 311 309 311 315 314 310 308 307 305 302 302
301 314 328 346 356 358 3 10 11 7 9 10 12 20 25 23 21 16 10 6 3 356 349 343 338 333 330 334 343 342 337 338 344 345 344 344 344 345 345 343 338 331 322 317 315 318 322 323 329 340 343 333 319 313 309 304 302 304 310 315 313 312 315 315 313 313 313 312 312 312 310 306 303 303
247 253 284 317 332 340 353 359 352 354 11 23 29 32 30 24 17 9 0 355 352 349 340 330 327 331 337 346 352 346 339 341 348 351 350 349 348 347 343 337 329 322 317 316 318 320 321 322 324 326 324 317 311 308 301 293 292 298 306 314 316 315 315 315 314 313 313 314 315 313 310 307 307 306
26 26 24 21 11 346 337 346 339 341 8 24 27 29 31 26 16 6 358 354 354 351 344 339 343 350 353 354 352 348 347 350 354 354 353 349 344 339 335 330 326 324 322 319 318 315 313 314 315 314 312 310 309 308 302 293 294 301 307 311 313 314 313 312 311 311 310 308 306 302 300 301 303 303
31 33 30 31 33 33 32 36 37 30 26 26 20 16 16 15 10 3 358 355 352 350 351 353 357 358 355 351 349 348 347 347 347 346 344 339 333 330 329 327 325 325 322 318 316 314 313 313 313 313 314 315 314 311 305 301 303 306 308 311 314 317 316 314 311 308 304 300 297 294 294 297 299 299
27 30 29 28 33 39 42 45 46 40 33 31 29 24 22 19 10 1 356 354 351 348 349 350 349 347 345 344 345 346 344 342 340 338 334 330 328 327 325 322 321 321 319 316 314 313 312 312 313 316 319 319 316 311 307 306 307 307 309 313 316 317 317 318 317 315 311 307 303 299 297 297 295 294
22 25 27 26 28 32 35 36 36 32 27 28 27 23 19 14 5 356 353 353 351 348 346 346 345 344 343 342 342 340 337 334 332 331 328 327 327 324 321 319 319 318 316 313 310 309 311 312 313 313 311 310 311 311 309 309 310 311 313 315 315 316 319 323 323 320 315 310 306 303 299 295 291 289
18 18 22 23 24 25 23 19 17 15 11 11 14 14 12 9 2 355 351 351 352 354 354 354 353 349 346 346 344 340 335 332 329 327 326 325 324 321 318 316 315 313 312 311 308 307 308 309 309 308 305 304 305 307 306 308 311 312 312 313 314 317 321 322 320 317 314 313 313 313 310 306 304 302